D1965 Weather Reports


Display with metric or nautical units.
time (UTC)temp
F
wind
direction
speed
MPH
gust
MPH
rain 1hr
in
rain 24hr
in
rain mn
in
humidity
%
barometer
mb
20260505222504 47 0 0.0 0.0 0.00 0.00 0.00 88 1015.7
20260505222005 47 0 0.0 0.0 0.00 0.00 0.00 87 1015.8
20260505221005 47 0 0.0 0.0 0.00 0.00 0.00 87 1015.8
20260505220503 47 0 0.0 0.0 0.00 0.00 0.00 87 1015.8
20260505220004 47 0 0.0 0.0 0.00 0.00 0.00 86 1015.8
20260505215503 47 0 0.0 0.0 0.00 0.00 0.00 86 1015.9
20260505215007 47 0 0.0 0.0 0.00 0.00 0.00 85 1015.9
20260505214505 47 0 0.0 0.0 0.00 0.00 0.00 86 1016.0
20260505214006 47 0 0.0 0.0 0.00 0.00 0.00 86 1015.9
20260505213506 47 0 0.0 0.0 0.00 0.00 0.00 86 1015.9
20260505213006 48 0 0.0 0.0 0.00 0.00 0.00 86 1015.8
20260505212506 48 0 0.0 0.0 0.00 0.00 0.00 86 1015.8
20260505212006 48 0 0.0 0.0 0.00 0.00 0.00 86 1015.8
20260505211006 48 0 0.0 0.0 0.00 0.00 0.00 86 1015.9
20260505210505 48 0 0.0 0.0 0.00 0.00 0.00 86 1015.9
20260505210006 48 0 0.0 0.0 0.00 0.00 0.00 86 1015.9
20260505205505 48 0 0.0 0.0 0.00 0.00 0.00 85 1015.8
20260505205006 48 0 0.0 0.0 0.00 0.00 0.00 85 1015.8
20260505204505 49 0 0.0 0.0 0.00 0.00 0.00 84 1015.7
20260505204006 49 0 0.0 0.0 0.00 0.00 0.00 84 1015.7
20260505203505 49 0 0.0 0.0 0.00 0.00 0.00 84 1015.7
20260505203007 49 0 0.0 0.0 0.00 0.00 0.00 83 1015.7
20260505202505 49 0 0.0 0.0 0.00 0.00 0.00 83 1015.8
20260505202006 49 0 0.0 0.0 0.00 0.00 0.00 83 1015.7
20260505201506 49 0 0.0 0.0 0.00 0.00 0.00 83 1015.7
20260505200506 50 0 0.0 0.0 0.00 0.00 0.00 82 1015.7
20260505200006 50 0 0.0 0.0 0.00 0.00 0.00 82 1015.8
20260505195505 50 0 0.0 0.0 0.00 0.00 0.00 81 1015.7
20260505195006 50 0 0.0 0.0 0.00 0.00 0.00 81 1015.8
20260505194505 50 0 0.0 0.0 0.00 0.00 0.00 81 1015.6
20260505194006 50 0 0.0 0.0 0.00 0.00 0.00 81 1015.7
20260505193006 51 0 0.0 0.0 0.00 0.00 0.00 80 1015.6
20260505192505 51 0 0.0 0.0 0.00 0.00 0.00 80 1015.6
20260505192007 51 0 0.0 0.0 0.00 0.00 0.00 80 1015.6
20260505190006 51 0 0.0 0.0 0.00 0.00 0.00 77 1015.6
20260505185006 52 0 0.0 0.0 0.00 0.00 0.00 76 1015.5
20260505184505 52 0 0.0 0.0 0.00 0.00 0.00 75 1015.5
20260505184006 52 0 0.0 0.0 0.00 0.00 0.00 76 1015.5
20260505183505 52 42 0.0 1.0 0.00 0.00 0.00 75 1015.5
20260505183007 52 42 0.0 2.0 0.00 0.00 0.00 75 1015.5
20260505182505 53 41 1.0 3.0 0.00 0.00 0.00 75 1015.5
20260505182007 53 39 1.0 4.0 0.00 0.00 0.00 74 1015.5
20260505181505 53 40 1.0 4.0 0.00 0.00 0.00 73 1015.5
20260505181006 53 41 1.0 4.0 0.00 0.00 0.00 74 1015.5
20260505180506 53 38 1.0 4.0 0.00 0.00 0.00 74 1015.5
20260505180006 53 37 1.0 4.0 0.00 0.00 0.00 74 1015.6
20260505175005 53 54 1.0 4.0 0.00 0.00 0.00 73 1015.5
20260505174506 53 57 1.0 3.0 0.00 0.00 0.00 73 1015.5
20260505174006 53 18 1.0 4.0 0.00 0.00 0.00 73 1015.6
20260505173506 53 25 1.0 4.0 0.00 0.00 0.00 73 1015.6
20260505173006 53 32 1.0 4.0 0.00 0.00 0.00 73 1015.6
20260505172506 53 32 1.0 4.0 0.00 0.00 0.00 73 1015.5
20260505172006 53 30 1.0 4.0 0.00 0.00 0.00 74 1015.5
20260505171506 53 20 0.0 4.0 0.00 0.00 0.00 73 1015.5
20260505170005 54 0 0.0 0.0 0.00 0.00 0.00 73 1015.7
20260505165505 54 0 0.0 0.0 0.00 0.00 0.00 71 1015.7
20260505165006 54 0 0.0 0.0 0.00 0.00 0.00 71 1015.8
20260505164505 54 0 0.0 0.0 0.00 0.00 0.00 70 1015.9
20260505164005 54 0 0.0 0.0 0.00 0.00 0.00 71 1015.8
20260505163007 55 0 0.0 0.0 0.00 0.00 0.00 69 1015.8
20260505162505 55 0 0.0 0.0 0.00 0.00 0.00 68 1015.9
20260505162006 56 0 0.0 0.0 0.00 0.00 0.00 67 1015.9
20260505161505 56 0 0.0 0.0 0.00 0.00 0.00 67 1015.9
20260505161006 56 0 0.0 0.0 0.00 0.00 0.00 68 1015.9
20260505160505 55 0 0.0 0.0 0.00 0.00 0.00 70 1015.9
20260505153006 53 0 0.0 0.0 0.00 0.00 0.00 72 1015.9
20260505152505 53 0 0.0 0.0 0.00 0.00 0.00 70 1016.1
20260505152006 53 0 0.0 0.0 0.00 0.00 0.00 71 1016.0
20260505151006 53 0 0.0 0.0 0.00 0.00 0.00 74 1016.2
20260505150504 53 0 0.0 0.0 0.00 0.00 0.00 75 1016.1
20260505140505 57 278 0.0 4.0 0.00 0.00 0.00 68 1016.1
20260505124505 54 0 0.0 0.0 0.00 0.00 0.00 76 1016.3
20260505124006 54 283 0.0 1.0 0.00 0.00 0.00 75 1016.3
20260505123505 55 282 0.0 7.0 0.00 0.00 0.00 74 1016.3
20260505122505 56 270 1.0 7.0 0.00 0.00 0.00 70 1016.3
20260505122005 57 261 2.0 5.0 0.00 0.00 0.00 69 1016.1
20260505121505 58 255 1.0 5.0 0.00 0.00 0.00 69 1016.2
20260505121006 58 283 0.0 3.0 0.00 0.00 0.00 75 1016.2
20260505120505 57 273 2.0 7.0 0.00 0.00 0.00 74 1016.3
20260505115505 56 301 0.0 3.0 0.00 0.00 0.00 71 1016.4
20260505114505 55 27 1.0 6.0 0.00 0.00 0.00 71 1016.6
20260505114006 55 36 0.0 3.0 0.00 0.00 0.00 71 1016.7
20260505113006 54 32 1.0 5.0 0.00 0.00 0.00 72 1016.6
20260505112006 54 34 1.0 5.0 0.00 0.00 0.00 72 1016.7
20260505111505 54 0 0.0 0.0 0.00 0.00 0.00 71 1016.8
20260505111006 54 0 0.0 0.0 0.00 0.00 0.00 72 1016.8
20260505110505 53 4 1.0 4.0 0.00 0.00 0.00 73 1016.8
20260505102006 52 289 0.0 2.0 0.00 0.00 0.00 77 1016.8
20260505100504 52 280 1.0 4.0 0.00 0.00 0.00 78 1016.8
20260505100005 52 272 1.0 3.0 0.00 0.00 0.00 77 1016.8
20260505095505 52 270 1.0 4.0 0.00 0.00 0.00 78 1016.7
20260505095007 52 275 1.0 4.0 0.00 0.00 0.00 81 1016.7
20260505094505 52 280 2.0 6.0 0.00 0.00 0.00 80 1016.7
20260505094006 52 283 2.0 6.0 0.00 0.00 0.00 79 1016.7
20260505093504 52 293 1.0 6.0 0.00 0.00 0.00 79 1016.7
20260505092504 52 15 0.0 2.0 0.00 0.00 0.00 79 1016.7
20260505092005 52 35 0.0 2.0 0.00 0.00 0.00 79 1016.7
20260505091504 52 4 0.0 2.0 0.00 0.00 0.00 79 1016.8
20260505091007 52 280 0.0 2.0 0.00 0.00 0.00 81 1016.8
20260505090505 52 280 0.0 1.0 0.00 0.00 0.00 81 1016.7
20260505085504 51 279 0.0 2.0 0.00 0.00 0.00 81 1016.8
20260505085005 51 279 0.0 2.0 0.00 0.00 0.00 83 1016.8
20260505084505 51 279 0.0 2.0 0.00 0.00 0.00 82 1016.9
20260505084005 51 279 0.0 2.0 0.00 0.00 0.00 84 1016.8
20260505083504 50 279 0.0 3.0 0.00 0.00 0.00 84 1016.8
20260505083005 50 279 0.0 3.0 0.00 0.00 0.00 85 1016.8
20260505082006 49 279 1.0 2.0 0.00 0.00 0.00 85 1016.8
20260505081504 49 279 1.0 2.0 0.00 0.00 0.00 86 1016.9
20260505081005 49 278 1.0 3.0 0.00 0.00 0.00 86 1016.9
20260505080505 49 278 1.0 3.0 0.00 0.00 0.00 86 1016.8
20260505080005 49 279 0.0 2.0 0.00 0.00 0.00 87 1016.9
20260505075504 49 278 1.0 3.0 0.00 0.00 0.00 87 1017.0
20260505075005 49 280 1.0 3.0 0.00 0.00 0.00 87 1016.9
20260505074504 49 281 1.0 3.0 0.00 0.00 0.00 87 1016.9
20260505074006 48 285 0.0 3.0 0.00 0.00 0.00 87 1016.9
20260505073504 48 291 1.0 3.0 0.00 0.00 0.00 88 1017.0
20260505072005 48 325 0.0 2.0 0.00 0.00 0.00 88 1017.0
20260505071006 48 356 0.0 3.0 0.00 0.00 0.00 89 1016.9
20260505070504 47 16 0.0 2.0 0.00 0.00 0.00 89 1016.9
20260505070005 47 0 0.0 0.0 0.00 0.00 0.00 89 1016.9
20260505065504 47 0 0.0 0.0 0.00 0.00 0.00 89 1016.9
20260505065006 47 0 0.0 0.0 0.00 0.00 0.00 89 1016.9
20260505064504 46 0 0.0 0.0 0.00 0.00 0.00 89 1016.9
20260505063504 46 0 0.0 0.0 0.00 0.00 0.00 89 1017.0
20260505062504 46 0 0.0 0.0 0.00 0.00 0.00 89 1017.0
20260505062005 46 0 0.0 0.0 0.00 0.00 0.00 89 1016.9
20260505061504 45 0 0.0 0.0 0.00 0.00 0.00 89 1016.8
20260505061005 45 38 0.0 2.0 0.00 0.00 0.00 90 1016.9
20260505060504 45 38 0.0 2.0 0.00 0.00 0.00 90 1016.7
20260505060005 45 0 0.0 0.0 0.00 0.00 0.00 90 1016.7
20260505055504 45 0 0.0 0.0 0.00 0.00 0.00 90 1016.8
20260505055005 45 0 0.0 0.0 0.00 0.00 0.00 90 1016.7
20260505054504 45 0 0.0 0.0 0.00 0.00 0.00 90 1016.7
20260505054005 44 0 0.0 0.0 0.00 0.00 0.00 90 1016.6
20260505053504 44 0 0.0 0.0 0.00 0.00 0.00 90 1016.6
20260505053005 44 0 0.0 0.0 0.00 0.00 0.00 90 1016.6
20260505052505 44 0 0.0 0.0 0.00 0.00 0.00 90 1016.7
20260505052005 44 0 0.0 0.0 0.00 0.00 0.00 90 1016.7
20260505051504 44 0 0.0 0.0 0.00 0.00 0.00 90 1016.7
20260505050504 44 0 0.0 0.0 0.00 0.00 0.00 90 1016.6
20260505041005 44 0 0.0 0.0 0.00 0.00 0.00 89 1016.5
20260505040504 44 0 0.0 0.0 0.00 0.00 0.00 89 1016.6
20260505035504 44 0 0.0 0.0 0.00 0.00 0.00 89 1016.8
20260505035005 44 0 0.0 0.0 0.00 0.00 0.00 89 1016.7
20260505034504 44 0 0.0 0.0 0.00 0.00 0.00 89 1016.7
20260505034006 44 0 0.0 0.0 0.00 0.00 0.00 89 1016.8
20260505033005 44 0 0.0 0.0 0.00 0.00 0.00 88 1016.8
20260505032504 44 0 0.0 0.0 0.00 0.00 0.00 88 1016.8
20260505031504 44 0 0.0 0.0 0.00 0.00 0.00 88 1016.8
20260505031005 44 0 0.0 0.0 0.00 0.00 0.00 88 1016.8
20260505030503 44 0 0.0 0.0 0.00 0.00 0.00 88 1016.8
20260505030005 44 0 0.0 0.0 0.00 0.00 0.00 88 1016.9
20260505025004 44 39 0.0 1.0 0.00 0.00 0.00 88 1016.8
20260505024504 44 39 0.0 1.0 0.00 0.00 0.00 87 1016.8
20260505023504 44 0 0.0 0.0 0.00 0.00 0.00 88 1016.9
20260505023004 44 0 0.0 0.0 0.00 0.00 0.00 88 1016.9
20260505022503 44 0 0.0 0.0 0.00 0.00 0.00 88 1017.0
20260505021504 44 39 0.0 2.0 0.00 0.00 0.00 88 1016.9
20260505021005 44 40 0.0 2.0 0.00 0.00 0.00 88 1017.0
20260505020504 44 46 0.0 1.0 0.00 0.00 0.00 87 1017.0
20260505020005 44 0 0.0 0.0 0.00 0.00 0.00 87 1017.1
20260505015004 44 0 0.0 0.0 0.00 0.00 0.00 87 1017.2
20260505014504 44 0 0.0 0.0 0.00 0.00 0.00 87 1017.3
20260505014005 44 0 0.0 0.0 0.00 0.00 0.00 86 1017.3
20260505013504 44 0 0.0 0.0 0.00 0.00 0.00 87 1017.4
20260505013004 45 0 0.0 0.0 0.00 0.00 0.00 86 1017.3
20260505012504 45 0 0.0 0.0 0.00 0.00 0.00 86 1017.3
20260505012005 45 0 0.0 0.0 0.00 0.00 0.00 86 1017.3
20260505011504 45 0 0.0 0.0 0.00 0.00 0.00 86 1017.3
20260505011005 45 0 0.0 0.0 0.00 0.00 0.00 86 1017.3
20260505010503 45 0 0.0 0.0 0.00 0.00 0.00 86 1017.4
20260505010005 45 0 0.0 0.0 0.00 0.00 0.00 86 1017.4
20260505005503 45 0 0.0 0.0 0.00 0.00 0.00 86 1017.3
20260505005005 45 0 0.0 0.0 0.00 0.00 0.00 87 1017.3
20260505004503 45 0 0.0 0.0 0.00 0.00 0.00 87 1017.3
20260505004005 45 0 0.0 0.0 0.00 0.00 0.00 86 1017.4
20260505003504 45 0 0.0 0.0 0.00 0.00 0.00 86 1017.3
20260505003005 45 0 0.0 0.0 0.00 0.00 0.00 87 1017.3
20260505002005 45 47 0.0 1.0 0.00 0.00 0.00 87 1017.3
20260505001504 45 47 0.0 1.0 0.00 0.00 0.00 86 1017.3
20260505000504 44 46 0.0 1.0 0.00 0.00 0.00 86 1017.3
20260505000005 44 46 0.0 1.0 0.00 0.00 0.00 87 1017.4
20260504235504 44 0 0.0 0.0 0.00 0.00 0.00 88 1017.3
20260504235005 44 0 0.0 0.0 0.00 0.00 0.00 89 1017.3
20260504232504 43 0 0.0 0.0 0.00 0.00 0.00 90 1017.3
20260504232004 42 0 0.0 0.0 0.00 0.00 0.00 90 1017.3
20260504231504 42 0 0.0 0.0 0.00 0.00 0.00 90 1017.3
20260504231004 42 0 0.0 0.0 0.00 0.00 0.00 89 1017.2
20260504230504 42 0 0.0 0.0 0.00 0.00 0.00 90 1017.3
20260504230005 42 0 0.0 0.0 0.00 0.00 0.00 90 1017.3
20260504225504 42 0 0.0 0.0 0.00 0.00 0.00 90 1017.3
20260504225004 42 0 0.0 0.0 0.00 0.00 0.00 90 1017.4
20260504224504 42 0 0.0 0.0 0.00 0.00 0.00 90 1017.3
20260504224004 42 0 0.0 0.0 0.00 0.00 0.00 89 1017.4
20260504223504 42 0 0.0 0.0 0.00 0.00 0.00 89 1017.2
20260504223004 42 0 0.0 0.0 0.00 0.00 0.00 88 1017.1